Flag for Germany Weather past 2 weeks in Bamberg, Bavaria, Germany

Now
57 °F

Partly sunny.


Feels Like: 57 °F
Forecast: 50 / 71 °F
Wind: 2 mph from South

Location: Bamberg

Current Time: Apr 26, 2015 at 10:33:17 AM

Latest Report: Apr 26, 2015 at 10:00 AM


Visibility: 11 mi

Pressure: 29.83 "Hg

Humidity: 86%

Dew point: 53 °F

Location of BambergLocation

Historic Weather in Bamberg — Graph

°F

Bamberg temperature yesterday

Maximum temperature yesterday: 65 °F (at 4:00 PM)
Minimum temperature yesterday: 35 °F (at 4:00 AM)
Average temperature yesterday: 51 °F

Past Weeks' High & Low Weather Summary

 TemperatureHumidityPressure
High76 °F (Apr 15, 6:00 PM)98% (Apr 12, 7:00 AM)30.49 "Hg (Apr 12, 7:00 AM)
Low26 °F (Apr 19, 6:00 AM)21% (Apr 21, 6:00 PM)29.80 "Hg (Apr 25, 5:00 PM)
Average50 °F63%30.17 "Hg
* Reported Apr 11 9:00 AM — Apr 26 9:00 AM, Bamberg, Weather by CustomWeather, © 2015

Note: Actual official high and low records may vary slightly from our data, if they occured in-between our weather recording intervals... More about our weather records

Advertising

Bamberg weather history for previous 24 hours

 ConditionsComfort  
Time TempWeatherWind HumidityBarometerVisibility
9:00 AM
Sun, Apr 26
55 °FOvercast.2 mph91%29.84 "Hg5 mi
8:00 AM54 °FFog.1 mph95%29.85 "Hg3 mi
7:00 AM53 °FOvercast.2 mph96%29.84 "Hg3 mi
6:00 AM52 °FFog.2 mph97%29.84 "Hg2 mi
5:00 AM53 °FFog.2 mph96%29.84 "Hg3 mi
4:00 AM53 °FFog.2 mph97%29.85 "Hg2 mi
3:00 AM53 °FOvercast.2 mph96%29.84 "Hg2 mi
2:00 AM53 °FLight rain. Overcast.2 mph97%29.85 "Hg2 mi
1:00 AM53 °FFog.2 mph97%29.85 "Hg4 mi
12:00 AM52 °FOvercast.2 mph96%29.85 "Hg5 mi
11:00 PM
Sat, Apr 25
52 °FOvercast.1 mph97%29.85 "Hg6 mi
10:00 PM54 °FOvercast.2 mph93%29.86 "Hg14 mi
9:00 PM55 °FDrizzle. Overcast.2 mph88%29.86 "Hg17 mi
8:00 PM58 °FLight rain. Overcast.6 mph70%29.84 "Hg17 mi
7:00 PM61 °FLight rain. Overcast.5 mph66%29.83 "Hg25 mi
6:00 PM62 °FOvercast.6 mph65%29.83 "Hg25 mi
5:00 PM64 °FOvercast.5 mph53%29.80 "Hg34 mi
4:00 PM65 °FOvercast.5 mph47%29.81 "Hg34 mi
3:00 PM65 °FOvercast.5 mph48%29.83 "Hg31 mi
2:00 PM64 °FOvercast.3 mph44%29.83 "Hg22 mi
1:00 PM61 °FOvercast.3 mph49%29.86 "Hg12 mi
12:00 PM60 °FOvercast.5 mph44%29.86 "Hg12 mi
11:00 AM58 °FOvercast.3 mph48%29.86 "Hg13 mi
10:00 AM54 °FOvercast.2 mph56%29.87 "Hg14 mi
Weather by CustomWeather, © 2015

See weather overviewHow to use our weather pages